TimeEDT,TemperatureF,Dew PointF,Humidity,Sea Level PressureIn,VisibilityMPH,Wind Direction,Wind SpeedMPH,Gust SpeedMPH,PrecipitationIn,Events,Conditions,WindDirDegrees,DateUTC
12:52 AM,73.9,63.0,68,30.04,10.0,Calm,Calm,-,N/A,,Clear,0,2013-07-07 04:52:00
1:52 AM,73.9,63.0,68,30.04,10.0,Calm,Calm,-,N/A,,Clear,0,2013-07-07 05:52:00
2:52 AM,73.0,64.0,73,30.03,10.0,Calm,Calm,-,N/A,,Clear,0,2013-07-07 06:52:00
3:52 AM,72.0,64.0,76,30.03,10.0,Calm,Calm,-,N/A,,Clear,0,2013-07-07 07:52:00
4:52 AM,69.1,64.0,84,30.02,10.0,Calm,Calm,-,N/A,,Clear,0,2013-07-07 08:52:00
5:52 AM,70.0,64.9,84,30.03,10.0,Calm,Calm,-,N/A,,Clear,0,2013-07-07 09:52:00
6:37 AM,73.4,64.4,73,30.03,10.0,Calm,Calm,-,N/A,,Partly Cloudy,0,2013-07-07 10:37:00
6:52 AM,73.9,64.9,73,30.03,10.0,Calm,Calm,-,N/A,,Partly Cloudy,0,2013-07-07 10:52:00
7:52 AM,77.0,66.0,69,30.04,10.0,Calm,Calm,-,N/A,,Clear,0,2013-07-07 11:52:00
8:52 AM,82.9,68.0,60,30.03,10.0,Variable,3.5,-,N/A,,Clear,0,2013-07-07 12:52:00
9:52 AM,84.9,66.9,55,30.02,10.0,Variable,5.8,-,N/A,,Clear,0,2013-07-07 13:52:00
10:52 AM,84.9,69.1,59,30.02,10.0,WSW,5.8,-,N/A,,Clear,250,2013-07-07 14:52:00
11:52 AM,86.0,70.0,59,30.01,10.0,WSW,6.9,-,N/A,,Clear,250,2013-07-07 15:52:00
12:52 PM,88.0,70.0,55,30.01,10.0,Calm,Calm,-,N/A,,Clear,0,2013-07-07 16:52:00
1:52 PM,91.0,70.0,50,29.99,10.0,NW,4.6,-,N/A,,Clear,310,2013-07-07 17:52:00
2:52 PM,93.0,70.0,47,29.95,10.0,West,5.8,-,N/A,,Partly Cloudy,270,2013-07-07 18:52:00
3:52 PM,88.0,72.0,59,29.95,10.0,WSW,4.6,-,N/A,,Clear,250,2013-07-07 19:52:00
4:52 PM,84.9,73.0,67,29.95,10.0,WSW,5.8,-,N/A,,Clear,250,2013-07-07 20:52:00
5:09 PM,84.2,73.4,70,29.95,10.0,WSW,8.1,-,N/A,,Scattered Clouds,250,2013-07-07 21:09:00
5:52 PM,82.0,73.0,74,29.94,10.0,SSW,9.2,-,0.00,Rain,Light Rain,210,2013-07-07 21:52:00
6:52 PM,79.0,72.0,79,29.93,10.0,SSW,3.5,-,0.00,,Scattered Clouds,200,2013-07-07 22:52:00
7:52 PM,80.1,69.1,69,29.94,10.0,NW,4.6,-,N/A,,Clear,310,2013-07-07 23:52:00
8:52 PM,78.1,70.0,76,29.95,10.0,NW,4.6,-,N/A,,Scattered Clouds,320,2013-07-08 00:52:00
9:52 PM,77.0,70.0,79,29.96,10.0,Calm,Calm,-,N/A,,Partly Cloudy,0,2013-07-08 01:52:00
10:52 PM,75.0,70.0,84,29.96,10.0,Calm,Calm,-,N/A,,Clear,0,2013-07-08 02:52:00
11:52 PM,75.0,70.0,84,29.95,10.0,Calm,Calm,-,N/A,,Clear,0,2013-07-08 03:52:00